Lexington Weather

Lexington, Massachusetts, USA

70°F
8/17/2022 6:40pm 
  • Lexington Conditions: Overcast
  • Temperature: 69.8°F / 21.0°CColder 0.2°F than last hour.
  • Dew Point: 58.3°FDecreased 0.2°Fsince last hour.
  • Relative Humidity: 67
  • Wind: Calm, 10-min avg: Calm, gust: 3 mph
  • Barometer: 29.85 in Steady
  • Visibility: 10 miles
  • Rain Today: 0.00 in
  •   

Regional Weather Roundup
for Boston, MA

        
000
ASUS41 KBOX 161910
RWRBOX

REGIONAL WEATHER ROUNDUP
NATIONAL WEATHER SERVICE BOSTON/NORTON MA
300 PM EDT TUE AUG 16 2022

NOTE:  "FAIR" INDICATES FEW OR NO CLOUDS BELOW 12,000 FEET WITH NO 
SIGNIFICANT WEATHER AND/OR OBSTRUCTIONS TO VISIBILITY.

MAZALL-162000-
EASTERN MASSACHUSETTS
  
CITY           SKY/WX    TMP DP  RH WIND       PRES   REMARKS
BOSTON         PTSUNNY   76  59  55 E10       30.05F                  
BEVERLY        PTSUNNY   78  55  44 NE12G20   30.05F                  
LAWRENCE       PTSUNNY   80  53  39 E10G22    30.07F                  
BEDFORD        PTSUNNY   80  51  36 E14       30.04S                  
BLUE HILL      NOT AVBL                                               
NORWOOD        PTSUNNY   79  32  18 NE10      30.04F                  
MARSHFIELD     PTSUNNY   72  64  78 VRB6G16   30.04S                  
PLYMOUTH       CLOUDY    72  61  68 N17G23    30.04S                  
TAUNTON          N/A    N/A N/A N/A MISG      30.02S                  
NEW BEDFORD    CLOUDY    76  59  55 NE14G21   30.01S                  
$$

MAZALL-162000-
CAPE COD AND THE ISLANDS
  
CITY           SKY/WX    TMP DP  RH WIND       PRES   REMARKS
FALMOUTH       MOSUNNY   72  63  73 NE12G23   30.02                   
HYANNIS        CLOUDY    75  61  61 NE16G23   30.00S                  
CHATHAM        CLOUDY    72  64  76 NE12      30.02S                  
NANTUCKET      LGT RAIN  72  64  76 NE12      30.00S                  
MARTHAS VNYRD  CLOUDY    74  62  66 NE16      30.00S                  
$$
 
MAZALL-162000-
CENTRAL AND WESTERN MASSACHUSETTS
  
CITY           SKY/WX    TMP DP  RH WIND       PRES   REMARKS
WORCESTER      CLOUDY    76  54  46 NE10      30.07S                  
FITCHBURG      MOSUNNY   82  48  30 E12G18    30.06S                  
ORANGE         MOSUNNY   84  50  30 E12G17    30.05F                  
SPRINGFIELD    PTSUNNY   84  46  26 NE12G21   29.99F                  
WESTFIELD      MOSUNNY   84  48  28 E9G20     30.02F                  
NORTH ADAMS    MOSUNNY   82  51  34 E12       30.04F                  
PITTSFIELD     MOSUNNY   81  48  31 NE13G20   30.05F                  
$$
 
RIZALL-162000-
RHODE ISLAND
  
CITY           SKY/WX    TMP DP  RH WIND       PRES   REMARKS
PROVIDENCE     PTSUNNY   81  57  43 NE15      30.02F                  
NEWPORT        CLOUDY    76  59  55 NE16      30.01S                  
BLOCK ISLAND   CLOUDY    73  63  70 NE12      30.01S                  
SMITHFIELD     PTSUNNY   79  57  46 NE15G22   30.04F                  
WESTERLY       CLOUDY    81  54  39 NE14      29.99F                  
$$
 
CTZALL-162000-
CONNECTICUT
  
CITY           SKY/WX    TMP DP  RH WIND       PRES   REMARKS
BRADLEY INTL   PTSUNNY   85  50  29 NE12      30.01F                  
HARTFORD       PTSUNNY   86  50  28 NE13G26   29.99F                  
BRIDGEPORT     MOSUNNY   78  60  53 S8        29.99F                  
DANBURY        MOSUNNY   83  50  31 NE12G21   30.02F                  
GROTON         CLOUDY    79  61  53 SE12      29.98F                  
NEW HAVEN      MOSUNNY   81  63  54 S8        30.00F                  
CHESTER        PTSUNNY   82  48  30 NE10G20   30.00F                  
MERIDEN        MOSUNNY   85  48  27 NE8G16    29.99F                  
WILLIMANTIC    PTSUNNY   82  51  34 NE16G25   30.01S                  
OXFORD         MOSUNNY   81  50  33 N17G23    30.03F                  
$$

MEZ002-015-021-024-NHZ003-005-008-011-012-014-VTZ005-008-162000-
NORTHERN NEW ENGLAND
  
CITY           SKY/WX    TMP DP  RH WIND       PRES   REMARKS
PORTLAND ME    MOSUNNY   78  60  53 E14       30.08F                  
BANGOR ME      PTSUNNY   81  54  39 E10       30.08S                  
CONCORD NH     MOSUNNY   83  49  30 E13G20    30.06S                  
MANCHESTER NH  PTSUNNY   83  50  31 VRB7      30.04F                  
NASHUA NH      PTSUNNY   83  53  35 NE9       30.06F                  
PORTSMOUTH NH  PTSUNNY   78  54  43 E16       30.06F                  
JAFFREY NH     MOSUNNY   81  49  32 VRB5      30.08F                  
KEENE NH       CLOUDY    81  54  39 N7          N/A                   
BURLINGTON VT  PTSUNNY   83  60  45 NW8       30.07F                  
MT. WASHINGTON PTSUNNY   52  46  82 E28         N/A                   
$$

NYZ052-076-162000-
EASTERN NEW YORK
  
CITY           SKY/WX    TMP DP  RH WIND       PRES   REMARKS
ALBANY         PTSUNNY   85  52  32 N13G20    30.03F                  
NEW YORK CITY  PTSUNNY   82  48  30 E9G20     29.99F                  
$$
 
ANZALL-162000-
MARINE OBSERVATIONS
  
STATION/POSITION TIME  TEMP    WIND        PRES    VSBY  WAVE
                       AIR SEA DIR/SP/G                  HT/PER
                 (UTC) (F)     (DEG/KT/KT) (MB)    (MI)  (FT/S)
BOSTON BUOY      NOT AVBL
BUZZARDS BAY     NOT AVBL
NANTUCKET SOUND  NOT AVBL
MASS BAY-STELLWA NOT AVBL
ISLE OF SHOALS   NOT AVBL
S OF BLOCK IS    NOT AVBL
$$

......................KEY.........................
  SKY/WX - SKY CONDITION/PRESENT WEATHER
  TMP    - TEMPERATURE IN FAHRENHEIT
  DWPT   - DEWPOINT IN FAHRENHEIT
  RH     - RELATIVE HUMIDITY IN PERCENT
  WIND   - DIRECTION AND SPEED IN MPH
  PRES   - MEAN SEA LEVEL PRESSURE IN INCHES OF HG
  WCI    - WIND CHILL INDEX
  VSB    - VISIBILITY IN MILES
  HX     - HEAT INDEX
  TC     - TEMPERATURE IN CELSIUS
  VRB    - VARIABLE WIND DIRECTION
  N/A    - NOT AVAILABLE
  
      

Other recent Regional Weather Roundups

Wed Aug 17, 6:10pm

Wed Aug 17, 5:10pm

Wed Aug 17, 4:10pm

Wed Aug 17, 3:10pm

Wed Aug 17, 2:10pm

Wed Aug 17, 1:10pm

Wed Aug 17, 12:10pm

Wed Aug 17, 11:10am

Wed Aug 17, 10:10am

Wed Aug 17, 9:10am

Wed Aug 17, 8:10am

Wed Aug 17, 7:10am

Wed Aug 17, 6:10am

Wed Aug 17, 5:10am

Wed Aug 17, 4:10am

Wed Aug 17, 3:10am

Wed Aug 17, 2:10am

Wed Aug 17, 1:10am

Wed Aug 17, 12:10am

Tue Aug 16, 11:10pm

Tue Aug 16, 10:10pm

Tue Aug 16, 9:10pm

Tue Aug 16, 8:10pm

Tue Aug 16, 7:10pm

Tue Aug 16, 6:10pm

Tue Aug 16, 5:10pm

Tue Aug 16, 4:10pm

Tue Aug 16, 2:10pm

Tue Aug 16, 1:10pm

Tue Aug 16, 12:10pm

Tue Aug 16, 11:10am

Tue Aug 16, 10:10am

Tue Aug 16, 9:10am

Tue Aug 16, 8:10am

Tue Aug 16, 7:10am

Tue Aug 16, 6:10am

Tue Aug 16, 5:10am

Tue Aug 16, 4:10am

Tue Aug 16, 3:10am

Tue Aug 16, 2:10am

Tue Aug 16, 1:10am

Tue Aug 16, 12:10am

Mon Aug 15, 11:10pm

Mon Aug 15, 10:10pm

Mon Aug 15, 9:10pm

Mon Aug 15, 8:10pm

Mon Aug 15, 7:10pm

Mon Aug 15, 6:10pm

Mon Aug 15, 5:10pm

Mon Aug 15, 4:10pm

Mon Aug 15, 3:10pm

Mon Aug 15, 2:10pm

Mon Aug 15, 1:10pm

Mon Aug 15, 12:10pm

Mon Aug 15, 11:10am

Mon Aug 15, 10:10am

Mon Aug 15, 9:10am

Mon Aug 15, 8:10am

Mon Aug 15, 7:10am

Mon Aug 15, 6:10am

Mon Aug 15, 5:10am

Mon Aug 15, 4:10am

Mon Aug 15, 3:10am

Mon Aug 15, 2:10am

Mon Aug 15, 1:10am

Mon Aug 15, 12:10am

Sun Aug 14, 11:10pm

Sun Aug 14, 10:10pm

Sun Aug 14, 9:10pm

Sun Aug 14, 8:10pm

Sun Aug 14, 7:10pm

Sun Aug 14, 6:10pm

Sun Aug 14, 5:10pm

Sun Aug 14, 4:10pm

Sun Aug 14, 3:10pm

Sun Aug 14, 2:10pm

Sun Aug 14, 1:10pm

Sun Aug 14, 12:10pm

Sun Aug 14, 11:10am

Sun Aug 14, 10:10am

Sun Aug 14, 9:10am

Sun Aug 14, 8:10am

Sun Aug 14, 7:10am

Sun Aug 14, 6:10am

Sun Aug 14, 5:10am

Sun Aug 14, 4:10am

Sun Aug 14, 3:10am

Sun Aug 14, 2:10am

Sun Aug 14, 1:10am

Sun Aug 14, 12:10am

Sat Aug 13, 11:10pm

Sat Aug 13, 10:10pm

Sat Aug 13, 9:10pm

Sat Aug 13, 8:10pm

Sat Aug 13, 7:10pm

Sat Aug 13, 6:10pm

Sat Aug 13, 5:10pm

Sat Aug 13, 4:10pm

Sat Aug 13, 3:10pm

Sat Aug 13, 2:10pm

Sat Aug 13, 1:10pm

Sat Aug 13, 12:10pm

Sat Aug 13, 11:10am

Sat Aug 13, 10:10am

Sat Aug 13, 9:10am

Sat Aug 13, 8:10am

Sat Aug 13, 7:10am

Sat Aug 13, 6:10am

Sat Aug 13, 5:10am

Sat Aug 13, 4:10am

Sat Aug 13, 3:10am

Sat Aug 13, 2:10am

Sat Aug 13, 1:10am

Sat Aug 13, 12:10am

Fri Aug 12, 11:10pm

Fri Aug 12, 10:10pm

Fri Aug 12, 9:10pm

Fri Aug 12, 8:10pm

Fri Aug 12, 7:10pm

Fri Aug 12, 6:10pm

Fri Aug 12, 5:10pm

Fri Aug 12, 4:10pm

Fri Aug 12, 3:10pm

Fri Aug 12, 2:10pm

Fri Aug 12, 1:10pm

Fri Aug 12, 12:10pm

Fri Aug 12, 11:10am

Fri Aug 12, 10:10am

Fri Aug 12, 9:10am

Fri Aug 12, 8:10am

Fri Aug 12, 7:10am

Fri Aug 12, 6:10am

Fri Aug 12, 5:10am

Fri Aug 12, 4:10am

Fri Aug 12, 3:10am

Fri Aug 12, 2:10am

Fri Aug 12, 1:10am

Fri Aug 12, 12:10am

Thu Aug 11, 11:10pm

Thu Aug 11, 10:10pm

Thu Aug 11, 9:10pm

Thu Aug 11, 8:10pm

Thu Aug 11, 7:10pm

Thu Aug 11, 6:10pm

Thu Aug 11, 5:10pm

Thu Aug 11, 4:10pm

Thu Aug 11, 3:10pm

Thu Aug 11, 2:10pm

Thu Aug 11, 1:10pm

Thu Aug 11, 12:10pm

Thu Aug 11, 11:10am

Thu Aug 11, 10:10am

Thu Aug 11, 9:10am

Thu Aug 11, 8:10am

Thu Aug 11, 7:10am

Thu Aug 11, 6:10am

Thu Aug 11, 5:10am

Thu Aug 11, 4:10am

Thu Aug 11, 3:10am

Thu Aug 11, 2:10am

Thu Aug 11, 1:10am

Thu Aug 11, 12:10am

Wed Aug 10, 11:10pm

Wed Aug 10, 10:10pm

Wed Aug 10, 9:10pm

Wed Aug 10, 8:10pm

Wed Aug 10, 7:10pm

Meta data:

ID: 617cb3d8-d714-4907-86d2-d5b45d8cd635
Link: https://api.weather.gov/products/617cb3d8-d714-4907-86d2-d5b45d8cd635